EW6140 Weather Reports


time (UTC)temp
F
wind
direction
speed
knots
gust
knots
rain 1hr
in
rain 24hr
in
rain mn
in
humidity
%
barometer
mb
20260504214632 69 211 0.0 6.1 0.00 0.00 0.00 36 1005.9
20260504214102 68 200 0.0 6.1 0.00 0.00 0.00 36 1005.9
20260504213558 68 190 0.0 5.2 0.00 0.00 0.00 36 1006.0
20260504213105 68 188 0.0 5.2 0.00 0.00 0.00 38 1005.9
20260504212555 67 0 0.0 3.5 0.00 0.00 0.00 37 1005.9
20260504212100 68 169 0.0 5.2 0.00 0.00 0.00 36 1005.9
20260504211652 68 0 0.0 7.0 0.00 0.00 0.00 37 1006.0
20260504211102 68 0 0.0 7.0 0.00 0.00 0.00 35 1006.0
20260504210601 69 0 0.0 5.2 0.00 0.00 0.00 36 1006.0
20260504210101 69 0 0.0 5.2 0.00 0.00 0.00 37 1006.0
20260504205601 70 0 0.9 5.2 0.00 0.00 0.00 36 1006.1
20260504205059 70 0 0.0 5.2 0.00 0.00 0.00 37 1006.1
20260504204604 68 0 0.0 5.2 0.00 0.00 0.00 39 1006.0
20260504204059 68 0 0.0 4.3 0.00 0.00 0.00 38 1006.0
20260504203557 68 251 0.0 4.3 0.00 0.00 0.00 37 1006.2
20260504203107 67 0 0.0 4.3 0.00 0.00 0.00 37 1006.3
20260504202557 68 0 0.0 2.6 0.00 0.00 0.00 37 1006.4
20260504202059 68 0 0.0 2.6 0.00 0.00 0.00 36 1006.4
20260504201612 68 0 0.0 2.6 0.00 0.00 0.00 36 1006.4
20260504201059 69 0 0.0 7.0 0.00 0.00 0.00 36 1006.4
20260504200558 69 244 0.0 7.0 0.00 0.00 0.00 38 1006.5
20260504200059 68 0 0.0 4.3 0.00 0.00 0.00 42 1006.6
20260504195559 68 0 0.0 3.5 0.00 0.00 0.00 38 1006.7
20260504195059 67 0 0.0 3.5 0.00 0.00 0.00 38 1006.7
20260504194557 67 0 0.0 0.9 0.00 0.00 0.00 39 1006.8
20260504194059 67 0 0.0 4.3 0.00 0.00 0.00 39 1006.9
20260504193557 68 0 0.0 4.3 0.00 0.00 0.00 38 1006.9
20260504193109 69 0 0.9 4.3 0.00 0.00 0.00 37 1006.9
20260504192558 70 0 0.0 2.6 0.00 0.00 0.00 39 1006.9
20260504192057 70 0 0.0 5.2 0.00 0.00 0.00 38 1006.9
20260504191611 69 0 0.0 5.2 0.00 0.00 0.00 38 1006.9
20260504191058 69 148 0.0 4.3 0.00 0.00 0.00 41 1007.0
20260504190559 69 0 0.0 6.1 0.00 0.00 0.00 37 1007.1
20260504190108 70 134 0.0 6.1 0.00 0.00 0.00 37 1007.3
20260504185558 69 94 0.0 4.3 0.00 0.00 0.00 37 1007.1
20260504185058 69 173 0.0 3.5 0.00 0.00 0.00 40 1007.2
20260504184557 68 0 0.0 4.3 0.00 0.00 0.00 41 1007.1
20260504184055 67 0 0.9 4.3 0.00 0.00 0.00 40 1007.2
20260504183602 68 0 0.0 5.2 0.00 0.00 0.00 38 1007.2
20260504183058 69 0 0.0 5.2 0.00 0.00 0.00 42 1007.2
20260504182558 68 252 0.0 5.2 0.00 0.00 0.00 41 1007.2
20260504182058 68 0 0.9 7.8 0.00 0.00 0.00 41 1007.2
20260504181603 67 253 0.9 7.8 0.00 0.00 0.00 42 1007.4
20260504181058 67 202 0.9 7.8 0.00 0.00 0.00 40 1007.4
20260504180557 68 173 0.0 7.0 0.00 0.00 0.00 41 1007.3
20260504180140 67 0 0.9 7.0 0.00 0.00 0.00 44 1007.2
20260504175559 67 0 0.0 1.7 0.00 0.00 0.00 44 1007.3
20260504175059 67 0 0.0 2.6 0.00 0.00 0.00 43 1007.3
20260504174609 66 0 0.0 2.6 0.00 0.00 0.00 46 1007.4
20260504174059 66 0 0.0 4.3 0.00 0.00 0.00 44 1007.4
20260504173603 64 141 0.0 4.3 0.00 0.00 0.00 45 1007.4
20260504173059 64 0 0.0 3.5 0.00 0.00 0.00 44 1007.5
20260504172558 65 0 0.0 9.6 0.00 0.00 0.00 45 1007.5
20260504172058 65 182 0.9 9.6 0.00 0.00 0.00 44 1007.4
20260504171558 65 0 0.0 4.3 0.00 0.00 0.00 44 1007.5
20260504171059 65 238 0.0 3.5 0.00 0.00 0.00 44 1007.5
20260504170558 65 0 0.0 7.0 0.00 0.00 0.00 43 1007.6
20260504151101 59 0 0.0 7.0 0.00 0.00 0.00 50 1008.7
20260504150558 58 0 0.0 4.3 0.00 0.00 0.00 51 1008.7
20260504141059 55 0 0.0 6.1 0.00 0.00 0.00 52 1008.8
20260504140558 55 0 0.0 7.8 0.00 0.00 0.00 52 1008.8
20260504140300 55 0 0.9 7.8 0.00 0.00 0.00 51 1008.8
20260504130558 51 173 0.0 6.1 0.00 0.00 0.00 56 1009.2
20260504120244 0 0.0 0.0 0.00 0.00 0.00 1009.4
20260504110559 0 0.0 0.0 0.00 0.00 0.00 1009.4
20260504100557 0 0.0 0.0 0.00 0.00 0.00 1009.3
20260504090121 0 0.0 0.0 0.00 0.00 0.00 1009.4
20260504081556 0 0.0 0.0 0.00 0.00 0.00 1009.5
20260504081054 0 0.0 0.0 0.00 0.00 0.00 1009.5
20260504080554 0 0.0 0.0 0.00 0.00 0.00 1009.4
20260504070226 0 0.0 0.0 0.00 0.00 0.00 1009.5
20260504050553 0 0.0 0.0 0.00 0.00 0.00 1009.8
20260504045554 0 0.0 0.0 0.00 0.00 0.00 1009.8
20260504045057 0 0.0 0.0 0.00 0.00 0.00 1009.7
20260504044557 0 0.0 0.0 0.00 0.00 0.00 1009.8
20260504044054 0 0.0 0.0 0.00 0.00 0.00 1009.7
20260504043557 0 0.0 0.0 0.00 0.00 0.00 1009.8
20260504043103 0 0.0 0.0 0.00 0.00 0.00 1009.9
20260504042554 0 0.0 0.0 0.00 0.00 0.00 1009.9
20260504042053 0 0.0 0.0 0.00 0.00 0.00 1009.9
20260504041557 0 0.0 0.0 0.00 0.00 0.00 1009.9
20260504041053 0 0.0 0.0 0.00 0.00 0.00 1009.9
20260504040557 0 0.0 0.0 0.00 0.00 0.00 1010.0
20260504040131 0 0.0 0.0 0.00 0.00 0.00 1010.0
20260504035555 0 0.0 0.0 0.00 0.00 0.00 1010.0
20260504035100 0 0.0 0.0 0.00 0.00 0.00 1009.9
20260504034602 0 0.0 0.0 0.00 0.00 0.00 1010.0
20260504034054 0 0.0 0.0 0.00 0.00 0.00 1009.9
20260504033554 0 0.0 0.0 0.00 0.00 0.00 1010.0
20260504033056 0 0.0 0.0 0.00 0.00 0.00 1010.1
20260504032554 0 0.0 0.0 0.00 0.00 0.00 1010.1
20260504032057 0 0.0 0.0 0.00 0.00 0.00 1010.2
20260504031606 0 0.0 0.0 0.00 0.00 0.00 1010.3
20260504031100 0 0.0 0.0 0.00 0.00 0.00 1010.3
20260504030557 0 0.0 0.0 0.00 0.00 0.00 1010.4
20260504030058 0 0.0 0.0 0.00 0.00 0.00 1010.4
20260504025600 0 0.0 0.0 0.00 0.00 0.00 1010.4
20260504025059 0 0.0 0.0 0.00 0.00 0.00 1010.5
20260504024603 0 0.0 0.0 0.00 0.00 0.00 1010.6
20260504024058 0 0.0 0.0 0.00 0.00 0.00 1010.7
20260504023558 0 0.0 0.0 0.00 0.00 0.00 1010.8
20260504023057 0 0.0 0.0 0.00 0.00 0.00 1011.0
20260504022558 0 0.0 0.0 0.00 0.00 0.00 1010.8
20260504022058 0 0.0 0.0 0.00 0.00 0.00 1010.9
20260504021556 0 0.0 0.0 0.00 0.00 0.00 1010.9
20260504021101 0 0.0 0.0 0.00 0.00 0.00 1010.8
20260504020600 0 0.0 0.0 0.00 0.00 0.00 1010.7
20260504020111 0 0.0 0.0 0.00 0.00 0.00 1010.8
20260504015601 0 0.0 0.0 0.00 0.00 0.00 1010.7
20260504015057 0 0.0 0.0 0.00 0.00 0.00 1010.8
20260504014603 0 0.0 0.0 0.00 0.00 0.00 1010.7
20260504014057 0 0.0 0.0 0.00 0.00 0.00 1010.7
20260504013559 0 0.0 0.0 0.00 0.00 0.00 1010.7
20260504013100 0 0.0 0.0 0.00 0.00 0.00 1010.8
20260504012601 0 0.0 0.0 0.00 0.00 0.00 1010.7
20260504012100 0 0.0 0.0 0.00 0.00 0.00 1010.7
20260504011600 0 0.0 0.0 0.00 0.00 0.00 1010.7
20260504011059 0 0.0 0.0 0.00 0.00 0.00 1010.5
20260504010558 0 0.0 0.0 0.00 0.00 0.00 1010.5
20260504010059 0 0.0 0.0 0.00 0.00 0.00 1010.4
20260504005559 0 0.0 0.0 0.00 0.00 0.00 1010.3
20260504005058 0 0.0 0.0 0.00 0.00 0.00 1010.3
20260504004559 0 0.0 0.0 0.00 0.00 0.00 1010.4
20260504004059 0 0.0 0.0 0.00 0.00 0.00 1010.4
20260504003559 0 0.0 0.0 0.00 0.00 0.00 1010.4
20260504003058 0 0.0 0.0 0.00 0.00 0.00 1010.4
20260504002559 0 0.0 0.0 0.00 0.00 0.00 1010.5
20260504002059 0 0.0 0.0 0.00 0.00 0.00 1010.4
20260504001559 0 0.0 0.0 0.00 0.00 0.00 1010.4
20260504001100 0 0.0 0.0 0.00 0.00 0.00 1010.6
20260504000557 0 0.0 0.0 0.00 0.00 0.00 1010.6
20260504000107 0 0.0 0.0 0.00 0.00 0.00 1010.5
20260503235558 0 0.0 0.0 0.00 0.00 0.00 1010.4
20260503235102 0 0.0 0.0 0.00 0.00 0.00 1010.2
20260503234628 0 0.0 0.0 0.00 0.00 0.00 1010.3
20260503234103 49 0.0 0.0 0.00 0.00 0.00 51 1010.3
20260503233559 49 0.0 7.0 0.00 0.00 0.00 51 1010.2
20260503233056 49 0 0.0 7.0 0.00 0.00 0.00 51 1010.1
20260503232558 49 237 0.0 1.7 0.00 0.00 0.00 51 1010.0
20260503232058 49 0 0.0 1.7 0.00 0.00 0.00 52 1010.0
20260503231559 49 0 0.0 1.7 0.00 0.00 0.00 51 1009.9
20260503231057 49 0 0.0 0.9 0.00 0.00 0.00 51 1009.9
20260503230600 49 0 0.0 0.9 0.00 0.00 0.00 50 1009.8
20260503230100 50 0 0.0 0.9 0.00 0.00 0.00 50 1009.9
20260503225559 50 0 0.0 0.9 0.00 0.00 0.00 48 1009.8
20260503225059 50 0 0.0 3.5 0.00 0.00 0.00 48 1009.9
20260503224556 50 0 0.0 2.6 0.00 0.00 0.00 48 1009.8
20260503224058 50 0 0.0 4.3 0.00 0.00 0.00 48 1009.8
20260503223557 50 0 0.0 4.3 0.00 0.00 0.00 49 1009.8
20260503223057 50 0 0.0 2.6 0.00 0.00 0.00 48 1009.9
20260503222558 50 0 0.0 2.6 0.00 0.00 0.00 48 1010.0
20260503222058 50 343 0.0 2.6 0.00 0.00 0.00 48 1010.0
20260503221601 50 0 0.0 1.7 0.00 0.00 0.00 49 1010.1
20260503221059 50 0 0.0 2.6 0.00 0.00 0.00 50 1010.1
20260503220559 50 250 0.0 2.6 0.00 0.00 0.00 48 1010.1
20260503215558 50 0 0.0 3.5 0.00 0.00 0.00 50 1010.0
20260503215058 50 225 0.0 3.5 0.00 0.00 0.00 49 1010.0